Flood From: 19-02-2018 10:30 Until: 20-02-2018 06:00 warning for: Flood Level: Yellow info button

Although rather usual in this region, locally or potentially dangerous phenomena are expected. (such as local winds, summer thunderstorms, rising streams or high waves) Be aware and pay attention to the latest weather updates, especially if you carry out activities exposed to weather or close to a stream or shoreline. 


Meteo18 Weather Cam more information Meteo18 Weather Cam


Thunder radar more information blitzortung!


Rain radar more information rain snow radar


Visit our other weather sites:

Template documentation
and downloads

And another site



Weather Underground History page Text

Daily Summary for September 8, 2017 Units:  Metric    English   Both
« Previous Day
Next Day »
Daily Weekly Monthly Yearly Custom
  High: Low: Average:
Temperature: -17.8 °C -10.1 °C -8.6 °C
Dew Point: -17.8 °C -12.4 °C -11.1 °C
Humidity: Humidity % 67 % 75 %
Wind Speed: 0 km/h 0 km/h 19.2 km/h
Wind Gust: 0 km/h - -
Wind:- - SW
Pressure: 0 hPa 34015.8 hPa -
Precipitation: 0 mm    
Historical Graphs
 
 
Tabular Data for September 8, 2017
Time Temperature Dew Point Pressure Wind Wind Speed Wind Gust Humidity Rainfall Rate (Hourly)
-17.8 °C -17.8 °C 0 hPa Calm     Humidity % 0 mm
00:02 -9.1 °C -12 °C 34462.7 hPa SW 5.1 km/h 7.7 km/h 71 % 0 mm
00:07 -9.1 °C -12.2 °C 34462.7 hPa WSW 7.7 km/h 10.3 km/h 70 % 0 mm
00:12 -9.1 °C -12.1 °C 34462.7 hPa WSW 2.6 km/h 10.3 km/h 70 % 0 mm
00:17 -9.1 °C -12.2 °C 34462.7 hPa WSW 2.6 km/h 10.3 km/h 69 % 0 mm
00:22 -9.1 °C -12.2 °C 34462.7 hPa SW 2.6 km/h 10.3 km/h 69 % 0 mm
00:32 -9 °C -12.3 °C 34462.7 hPa Calm   7.7 km/h 68 % 0 mm
00:37 -9 °C -12.3 °C 34462.7 hPa West 2.6 km/h 7.7 km/h 68 % 0 mm
00:42 -9 °C -12.4 °C 34462.7 hPa SW 10.3 km/h 10.3 km/h 67 % 0 mm
00:47 -8.9 °C -12.3 °C 34452.6 hPa SW 2.6 km/h 10.3 km/h 67 % 0 mm
00:52 -8.9 °C -12.2 °C 34452.6 hPa SSW 2.6 km/h 12.9 km/h 68 % 0 mm
00:57 -9.1 °C -12.2 °C 34452.6 hPa SSW 2.6 km/h 12.9 km/h 69 % 0 mm
01:02 -9.2 °C -12.2 °C 34452.6 hPa SSW 5.1 km/h 12.9 km/h 70 % 0 mm
01:07 -9.3 °C -12.2 °C 34452.6 hPa SSW 5.1 km/h 10.3 km/h 71 % 0 mm
01:12 -9.3 °C -12.2 °C 34452.6 hPa SW 5.1 km/h 10.3 km/h 71 % 0 mm
01:17 -9.3 °C -12.1 °C 34452.6 hPa SW 7.7 km/h 12.9 km/h 72 % 0 mm
01:22 -9.4 °C -12.2 °C 34452.6 hPa SSW 10.3 km/h 12.9 km/h 72 % 0 mm
01:27 -9.4 °C -12.2 °C 34442.4 hPa SSW 7.7 km/h 12.9 km/h 72 % 0 mm
01:32 -9.4 °C -12.2 °C 34442.4 hPa SW 10.3 km/h 10.3 km/h 72 % 0 mm
01:42 -9.4 °C -12.1 °C 34442.4 hPa SW 10.3 km/h 15.6 km/h 73 % 0 mm
01:52 -9.5 °C -12.2 °C 34428.8 hPa SSE 7.7 km/h 15.6 km/h 73 % 0 mm
01:57 -9.5 °C -12.2 °C 34428.8 hPa SSW 2.6 km/h 12.9 km/h 73 % 0 mm
02:07 -9.5 °C -12.2 °C 34428.8 hPa SW 7.7 km/h 12.9 km/h 73 % 0 mm
02:12 -9.5 °C -12.2 °C 34428.8 hPa SSW 7.7 km/h 12.9 km/h 73 % 0 mm
02:17 -9.5 °C -12.2 °C 34428.8 hPa SW 7.7 km/h 10.3 km/h 73 % 0 mm
02:22 -9.4 °C -12.1 °C 34428.8 hPa SW 5.1 km/h 15.6 km/h 73 % 0 mm
02:27 -9.3 °C -12 °C 34428.8 hPa SW 7.7 km/h 20.8 km/h 73 % 0 mm
02:32 -9.3 °C -12.1 °C 34418.7 hPa SW 2.6 km/h 20.8 km/h 72 % 0 mm
02:37 -9.3 °C -11.9 °C 34418.7 hPa SW 7.7 km/h 18.2 km/h 73 % 0 mm
02:42 -9.3 °C -11.9 °C 34418.7 hPa West 2.6 km/h 15.6 km/h 73 % 0 mm
02:47 -9.3 °C -11.9 °C 34418.7 hPa WSW 10.3 km/h 15.6 km/h 73 % 0 mm
02:52 -9.3 °C -11.9 °C 34418.7 hPa WSW 12.9 km/h 18.2 km/h 73 % 0 mm
02:57 -9.3 °C -11.9 °C 34405.1 hPa SW 10.3 km/h 18.2 km/h 73 % 0 mm
03:02 -9.3 °C -11.9 °C 34405.1 hPa WSW 10.3 km/h 18.2 km/h 74 % 0 mm
03:12 -9.3 °C -11.9 °C 34418.7 hPa WSW 7.7 km/h 12.9 km/h 74 % 0 mm
03:17 -9.3 °C -11.9 °C 34418.7 hPa WSW 2.6 km/h 12.9 km/h 74 % 0 mm
03:22 -9.3 °C -11.8 °C 34418.7 hPa WSW 5.1 km/h 12.9 km/h 75 % 0 mm
03:27 -9.3 °C -11.8 °C 34418.7 hPa SW 7.7 km/h 12.9 km/h 75 % 0 mm
03:32 -9.3 °C -11.8 °C 34418.7 hPa WSW 10.3 km/h 12.9 km/h 75 % 0 mm
03:37 -9.3 °C -11.8 °C 34418.7 hPa SW 10.3 km/h 15.6 km/h 75 % 0 mm
03:42 -9.3 °C -11.8 °C 34418.7 hPa SW 7.7 km/h 15.6 km/h 75 % 0 mm
03:47 -9.3 °C -11.8 °C 34418.7 hPa West 2.6 km/h 20.8 km/h 75 % 0 mm
03:52 -9.3 °C -11.8 °C 34418.7 hPa West 5.1 km/h 20.8 km/h 75 % 0 mm
03:57 -9.3 °C -11.8 °C 34418.7 hPa WSW 10.3 km/h 20.8 km/h 75 % 0 mm
04:02 -9.3 °C -11.8 °C 34418.7 hPa WSW 5.1 km/h 15.6 km/h 75 % 0 mm
04:07 -9.3 °C -11.8 °C 34418.7 hPa WSW 5.1 km/h 15.6 km/h 75 % 0 mm
04:12 -9.3 °C -11.7 °C 34418.7 hPa SW 10.3 km/h 15.6 km/h 76 % 0 mm
04:17 -9.3 °C -11.7 °C 34418.7 hPa SW 7.7 km/h 18.2 km/h 76 % 0 mm
04:22 -9.3 °C -11.7 °C 34405.1 hPa WSW 15.6 km/h 18.2 km/h 76 % 0 mm
04:27 -9.4 °C -11.7 °C 34405.1 hPa SW 10.3 km/h 18.2 km/h 76 % 0 mm
04:37 -9.4 °C -11.6 °C 34405.1 hPa SW 12.9 km/h 18.2 km/h 77 % 0 mm
04:42 -9.4 °C -11.6 °C 34405.1 hPa West 7.7 km/h 23.3 km/h 77 % 0 mm
04:47 -9.4 °C -11.6 °C 34405.1 hPa WSW 10.3 km/h 23.3 km/h 77 % 0 mm
04:52 -9.4 °C -11.7 °C 34405.1 hPa SSW 2.6 km/h 23.3 km/h 77 % 0 mm
05:02 -9.4 °C -11.7 °C 34395 hPa WSW 18.2 km/h 25.9 km/h 77 % 0 mm
05:22 -9.5 °C -11.8 °C 34395 hPa SW 12.9 km/h 28.5 km/h 76 % 0 mm
05:27 -9.5 °C -11.8 °C 34395 hPa WSW 15.6 km/h 31.1 km/h 76 % 0 mm
05:37 -9.6 °C -11.8 °C 34395 hPa WSW 5.1 km/h 31.1 km/h 77 % 0 mm
05:47 -9.6 °C -11.8 °C 34384.8 hPa WSW 7.7 km/h 23.3 km/h 77 % 0 mm
05:52 -9.6 °C -11.8 °C 34384.8 hPa SW 12.9 km/h 23.3 km/h 77 % 0 mm
05:57 -9.6 °C -11.8 °C 34384.8 hPa WSW 18.2 km/h 28.5 km/h 77 % 0 mm
06:02 -9.7 °C -11.9 °C 34384.8 hPa SW 18.2 km/h 28.5 km/h 77 % 0 mm
06:07 -9.7 °C -11.9 °C 34384.8 hPa SW 20.8 km/h 28.5 km/h 77 % 0 mm
06:12 -9.7 °C -11.9 °C 34384.8 hPa WSW 10.3 km/h 28.5 km/h 77 % 0 mm
06:22 -9.8 °C -11.9 °C 34384.8 hPa SSW 5.1 km/h 33.6 km/h 78 % 0 mm
06:32 -9.8 °C -11.9 °C 34384.8 hPa SW 12.9 km/h 31.1 km/h 78 % 0 mm
06:42 -9.8 °C -11.9 °C 34384.8 hPa SW 15.6 km/h 31.1 km/h 78 % 0 mm
06:47 -9.8 °C -11.8 °C 34384.8 hPa SW 12.9 km/h 28.5 km/h 79 % 0 mm
06:52 -9.9 °C -11.9 °C 34384.8 hPa SW 18.2 km/h 28.5 km/h 79 % 0 mm
07:02 -9.9 °C -11.9 °C 34384.8 hPa WSW 10.3 km/h 28.5 km/h 79 % 0 mm
07:12 -9.9 °C -11.8 °C 34384.8 hPa SW 12.9 km/h 31.1 km/h 80 % 0 mm
07:17 -9.9 °C -11.8 °C 34384.8 hPa SW 2.6 km/h 31.1 km/h 80 % 0 mm
07:22 -10 °C -11.8 °C 34384.8 hPa SW 10.3 km/h 31.1 km/h 81 % 0 mm
07:32 -10.1 °C -11.8 °C 34371.3 hPa SW 18.2 km/h 23.3 km/h 81 % 0 mm
07:42 -10.1 °C -11.8 °C 34371.3 hPa SW 20.8 km/h 31.1 km/h 81 % 0 mm
07:47 -10.1 °C -11.8 °C 34371.3 hPa SSW 20.8 km/h 31.1 km/h 81 % 0 mm
07:52 -10.1 °C -11.8 °C 34371.3 hPa SW 18.2 km/h 28.5 km/h 81 % 0 mm
07:57 -10.1 °C -11.8 °C 34371.3 hPa SW 18.2 km/h 28.5 km/h 81 % 0 mm
08:02 -10.1 °C -11.8 °C 34371.3 hPa SW 31.1 km/h 31.1 km/h 81 % 0 mm
08:07 -10.1 °C -11.7 °C 34371.3 hPa SW 20.8 km/h 33.6 km/h 82 % 0 mm
08:12 -10.1 °C -11.7 °C 34371.3 hPa SW 12.9 km/h 33.6 km/h 82 % 0 mm
08:17 -10.1 °C -11.7 °C 34371.3 hPa SW 12.9 km/h 33.6 km/h 82 % 0 mm
08:22 -10.1 °C -11.7 °C 34361.1 hPa SW 20.8 km/h 25.9 km/h 82 % 0 mm
08:32 -10 °C -11.7 °C 34361.1 hPa SW 25.9 km/h 31.1 km/h 82 % 0 mm
08:37 -10 °C -11.7 °C 34361.1 hPa SSW 18.2 km/h 33.6 km/h 82 % 0 mm
08:42 -9.9 °C -11.6 °C 34361.1 hPa SW 25.9 km/h 33.6 km/h 82 % 0 mm
08:47 -9.9 °C -11.6 °C 34361.1 hPa South 12.9 km/h 33.6 km/h 82 % 0 mm
08:52 -9.9 °C -11.6 °C 34361.1 hPa SSW 20.8 km/h 33.6 km/h 82 % 0 mm
08:57 -9.9 °C -11.6 °C 34361.1 hPa WSW 23.3 km/h 33.6 km/h 82 % 0 mm
09:02 -9.9 °C -11.6 °C 34347.6 hPa SSW 25.9 km/h 36.2 km/h 82 % 0 mm
09:07 -9.8 °C -11.4 °C 34347.6 hPa SW 15.6 km/h 36.2 km/h 82 % 0 mm
09:12 -9.7 °C -11.3 °C 34347.6 hPa WSW 36.2 km/h 36.2 km/h 82 % 0 mm
09:17 -9.7 °C -11.3 °C 34347.6 hPa SW 28.5 km/h 38.8 km/h 82 % 0 mm
09:22 -9.6 °C -11.3 °C 34347.6 hPa WSW 23.3 km/h 38.8 km/h 82 % 0 mm
09:32 -9.6 °C -11.3 °C 34347.6 hPa WSW 31.1 km/h 46.7 km/h 81 % 0 mm
09:37 -9.5 °C -11.3 °C 34347.6 hPa SW 31.1 km/h 46.7 km/h 81 % 0 mm
09:42 -9.5 °C -11.3 °C 34347.6 hPa SW 25.9 km/h 41.4 km/h 81 % 0 mm
09:47 -9.5 °C -11.3 °C 34347.6 hPa SSW 28.5 km/h 41.4 km/h 81 % 0 mm
09:52 -9.5 °C -11.3 °C 34347.6 hPa SW 28.5 km/h 44.1 km/h 81 % 0 mm
09:57 -9.4 °C -11.3 °C 34347.6 hPa SW 23.3 km/h 44.1 km/h 80 % 0 mm
10:02 -9.3 °C -11.2 °C 34347.6 hPa South 15.6 km/h 41.4 km/h 80 % 0 mm
10:12 -9.3 °C -11.3 °C 34347.6 hPa SSW 15.6 km/h 38.8 km/h 79 % 0 mm
10:17 -9.2 °C -11.2 °C 34347.6 hPa SSW 12.9 km/h 38.8 km/h 79 % 0 mm
10:22 -9.1 °C -11.2 °C 34347.6 hPa WSW 18.2 km/h 38.8 km/h 78 % 0 mm
10:27 -9.1 °C -11.2 °C 34361.1 hPa SSW 18.2 km/h 38.8 km/h 78 % 0 mm
10:32 -9.1 °C -11.2 °C 34347.6 hPa SW 25.9 km/h 38.8 km/h 78 % 0 mm
10:37 -9.1 °C -11.2 °C 34347.6 hPa WSW 18.2 km/h 51.8 km/h 78 % 0 mm
10:47 -9 °C -11.2 °C 34347.6 hPa WSW 25.9 km/h 51.8 km/h 77 % 0 mm
10:52 -8.9 °C -11.1 °C 34347.6 hPa SW 36.2 km/h 44.1 km/h 77 % 0 mm
11:02 -8.7 °C -11.1 °C 34347.6 hPa SW 12.9 km/h 44.1 km/h 76 % 0 mm
11:07 -8.7 °C -11 °C 34347.6 hPa WSW 31.1 km/h 46.7 km/h 76 % 0 mm
11:12 -8.6 °C -10.9 °C 34347.6 hPa SW 25.9 km/h 46.7 km/h 76 % 0 mm
11:17 -8.5 °C -11 °C 34347.6 hPa SW 20.8 km/h 38.8 km/h 75 % 0 mm
11:22 -8.4 °C -11.1 °C 34347.6 hPa SW 36.2 km/h 41.4 km/h 74 % 0 mm
11:32 -8.4 °C -10.9 °C 34337.4 hPa WSW 20.8 km/h 46.7 km/h 75 % 0 mm
11:37 -8.4 °C -10.9 °C 34337.4 hPa WSW 25.9 km/h 46.7 km/h 75 % 0 mm
11:42 -8.4 °C -11 °C 34337.4 hPa West 20.8 km/h 46.7 km/h 74 % 0 mm
11:52 -8.5 °C -10.9 °C 34327.3 hPa West 20.8 km/h 41.4 km/h 76 % 0 mm
11:57 -8.5 °C -10.9 °C 34337.4 hPa SW 25.9 km/h 41.4 km/h 76 % 0 mm
12:02 -8.6 °C -10.8 °C 34327.3 hPa SSW 15.6 km/h 41.4 km/h 77 % 0 mm
12:07 -8.5 °C -10.8 °C 34327.3 hPa SW 46.7 km/h 46.7 km/h 77 % 0 mm
12:12 -8.4 °C -10.8 °C 34327.3 hPa SSW 25.9 km/h 51.8 km/h 76 % 0 mm
12:17 -8.5 °C -10.8 °C 34327.3 hPa SW 36.2 km/h 51.8 km/h 77 % 0 mm
12:22 -8.6 °C -10.6 °C 34327.3 hPa WSW 18.2 km/h 51.8 km/h 79 % 0 mm
12:32 -8.4 °C -10.5 °C 34313.7 hPa South 12.9 km/h 49.2 km/h 79 % 0 mm
12:42 -8.1 °C -10.5 °C 34303.6 hPa SW 18.2 km/h 41.4 km/h 76 % 0 mm
12:47 -7.9 °C -10.4 °C 34303.6 hPa SW 23.3 km/h 49.2 km/h 75 % 0 mm
12:52 -7.9 °C -10.6 °C 34303.6 hPa SW 15.6 km/h 49.2 km/h 74 % 0 mm
12:57 -8 °C -10.4 °C 34303.6 hPa South 38.8 km/h 49.2 km/h 76 % 0 mm
13:02 -8.1 °C -10.5 °C 34303.6 hPa South 23.3 km/h 44.1 km/h 76 % 0 mm
13:07 -8.2 °C -10.4 °C 34293.4 hPa SSW 23.3 km/h 51.8 km/h 77 % 0 mm
13:12 -8.1 °C -10.5 °C 34293.4 hPa SW 15.6 km/h 51.8 km/h 76 % 0 mm
13:17 -8 °C -10.5 °C 34293.4 hPa SW 10.3 km/h 51.8 km/h 75 % 0 mm
13:22 -7.9 °C -10.6 °C 34293.4 hPa SW 12.9 km/h 41.4 km/h 74 % 0 mm
13:27 -7.8 °C -10.5 °C 34279.9 hPa SW 10.3 km/h 36.2 km/h 73 % 0 mm
13:32 -7.7 °C -10.6 °C 34279.9 hPa SW 7.7 km/h 36.2 km/h 72 % 0 mm
13:37 -7.7 °C -10.6 °C 34293.4 hPa WSW 20.8 km/h 38.8 km/h 72 % 0 mm
13:42 -7.8 °C -10.6 °C 34279.9 hPa WSW 25.9 km/h 38.8 km/h 73 % 0 mm
13:47 -7.9 °C -10.6 °C 34293.4 hPa SW 46.7 km/h 46.7 km/h 74 % 0 mm
13:52 -8.2 °C -10.4 °C 34293.4 hPa West 23.3 km/h 49.2 km/h 78 % 0 mm
13:57 -8.4 °C -10.2 °C 34293.4 hPa WSW 31.1 km/h 49.2 km/h 82 % 0 mm
14:02 -8.6 °C -9.9 °C 34293.4 hPa WSW 25.9 km/h 46.7 km/h 85 % 0 mm
14:07 -8.5 °C -10 °C 34293.4 hPa West 10.3 km/h 44.1 km/h 84 % 0 mm
14:12 -8.4 °C -10.2 °C 34293.4 hPa West 15.6 km/h 38.8 km/h 82 % 0 mm
14:17 -8.3 °C -10 °C 34279.9 hPa West 10.3 km/h 38.8 km/h 82 % 0 mm
14:22 -8.2 °C -10.1 °C 34279.9 hPa WSW 25.9 km/h 36.2 km/h 80 % 0 mm
14:27 -8.1 °C -10.1 °C 34269.7 hPa SSW 5.1 km/h 38.8 km/h 80 % 0 mm
14:32 -8.1 °C -10.1 °C 34269.7 hPa SW 7.7 km/h 38.8 km/h 79 % 0 mm
14:37 -7.9 °C -10.1 °C 34256.2 hPa SW 20.8 km/h 31.1 km/h 78 % 0 mm
14:42 -7.8 °C -10.2 °C 34256.2 hPa West 36.2 km/h 36.2 km/h 76 % 0 mm
14:47 -7.8 °C -10.2 °C 34256.2 hPa SW 10.3 km/h 44.1 km/h 76 % 0 mm
14:52 -7.7 °C -10.3 °C 34256.2 hPa SW 18.2 km/h 44.1 km/h 74 % 0 mm
14:57 -7.4 °C -10.2 °C 34256.2 hPa ENE 15.6 km/h 44.1 km/h 73 % 0 mm
15:02 -7.3 °C -10.2 °C 34246 hPa SSW 18.2 km/h 33.6 km/h 72 % 0 mm
15:07 -7.4 °C -10.4 °C 34246 hPa WSW 31.1 km/h 36.2 km/h 71 % 0 mm
15:12 -7.3 °C -10.3 °C 34246 hPa WSW 18.2 km/h 38.8 km/h 71 % 0 mm
15:17 -7.3 °C -10.3 °C 34235.8 hPa South 25.9 km/h 38.8 km/h 71 % 0 mm
15:22 -7.4 °C -10.3 °C 34235.8 hPa SW 20.8 km/h 46.7 km/h 72 % 0 mm
15:27 -7.6 °C -10.3 °C 34235.8 hPa WNW 25.9 km/h 46.7 km/h 73 % 0 mm
15:32 -7.6 °C -10.3 °C 34235.8 hPa SSW 25.9 km/h 51.8 km/h 73 % 0 mm
15:37 -7.4 °C -10.2 °C 34235.8 hPa SW 25.9 km/h 51.8 km/h 73 % 0 mm
15:47 -7.4 °C -10.3 °C 34235.8 hPa SW 15.6 km/h 54.4 km/h 72 % 0 mm
15:52 -7.3 °C -10.3 °C 34222.3 hPa SW 12.9 km/h 54.4 km/h 71 % 0 mm
15:57 -7.3 °C -10.4 °C 34222.3 hPa SW 18.2 km/h 54.4 km/h 70 % 0 mm
16:02 -7.3 °C -10.2 °C 34222.3 hPa WSW 38.8 km/h 46.7 km/h 72 % 0 mm
16:07 -7.4 °C -10.3 °C 34222.3 hPa SW 7.7 km/h 46.7 km/h 72 % 0 mm
16:12 -7.4 °C -10.3 °C 34212.1 hPa SW 10.3 km/h 46.7 km/h 72 % 0 mm
16:17 -7.3 °C -10.2 °C 34212.1 hPa SW 23.3 km/h 46.7 km/h 72 % 0 mm
16:22 -7.3 °C -10.3 °C 34198.6 hPa SSW 23.3 km/h 44.1 km/h 71 % 0 mm
16:27 -7.2 °C -10.3 °C 34198.6 hPa SW 28.5 km/h 46.7 km/h 70 % 0 mm
16:32 -7.2 °C -10.4 °C 34198.6 hPa SW 23.3 km/h 46.7 km/h 69 % 0 mm
16:37 -7.2 °C -10.3 °C 34198.6 hPa WSW 23.3 km/h 46.7 km/h 70 % 0 mm
16:42 -7.2 °C -10.3 °C 34188.4 hPa SW 20.8 km/h 44.1 km/h 70 % 0 mm
16:47 -7.1 °C -10.2 °C 34188.4 hPa SSW 15.6 km/h 44.1 km/h 70 % 0 mm
16:52 -7.1 °C -10.4 °C 34188.4 hPa SW 36.2 km/h 44.1 km/h 68 % 0 mm
16:57 -7 °C -10.4 °C 34188.4 hPa SW 20.8 km/h 44.1 km/h 68 % 0 mm
17:02 -7.1 °C -10.4 °C 34188.4 hPa WSW 15.6 km/h 51.8 km/h 68 % 0 mm
17:07 -7.1 °C -10.3 °C 34198.6 hPa SW 33.6 km/h 54.4 km/h 69 % 0 mm
17:12 -7.2 °C -10.4 °C 34188.4 hPa South 12.9 km/h 54.4 km/h 69 % 0 mm
17:17 -7.2 °C -10.4 °C 34188.4 hPa WSW 10.3 km/h 54.4 km/h 69 % 0 mm
17:22 -7.1 °C -10.3 °C 34188.4 hPa SW 23.3 km/h 49.2 km/h 69 % 0 mm
17:27 -7.1 °C -10.4 °C 34178.3 hPa WSW 15.6 km/h 46.7 km/h 68 % 0 mm
17:32 -6.9 °C -10.3 °C 34178.3 hPa WSW 15.6 km/h 46.7 km/h 68 % 0 mm
17:37 -6.9 °C -10.4 °C 34178.3 hPa WSW 28.5 km/h 49.2 km/h 67 % 0 mm
17:42 -6.9 °C -10.4 °C 34178.3 hPa West 12.9 km/h 49.2 km/h 67 % 0 mm
17:47 -7 °C -10.4 °C 34178.3 hPa SW 31.1 km/h 49.2 km/h 68 % 0 mm
17:52 -7 °C -10.4 °C 34178.3 hPa SW 41.4 km/h 49.2 km/h 68 % 0 mm
17:57 -7.1 °C -10.3 °C 34178.3 hPa SSW 36.2 km/h 46.7 km/h 69 % 0 mm
18:02 -7.1 °C -10.3 °C 34178.3 hPa SW 31.1 km/h 46.7 km/h 69 % 0 mm
18:07 -7.1 °C -10.3 °C 34164.7 hPa SW 33.6 km/h 46.7 km/h 69 % 0 mm
18:12 -7.1 °C -10.3 °C 34164.7 hPa SSW 25.9 km/h 46.7 km/h 69 % 0 mm
18:17 -7.1 °C -10.4 °C 34154.6 hPa South 18.2 km/h 46.7 km/h 68 % 0 mm
18:22 -7 °C -10.4 °C 34154.6 hPa West 20.8 km/h 46.7 km/h 68 % 0 mm
18:32 -7 °C -10.5 °C 34154.6 hPa SSW 23.3 km/h 46.7 km/h 67 % 0 mm
18:42 -7 °C -10.5 °C 34154.6 hPa SW 31.1 km/h 46.7 km/h 67 % 0 mm
18:47 -7 °C -10.5 °C 34154.6 hPa West 12.9 km/h 46.7 km/h 67 % 0 mm
18:52 -7 °C -10.5 °C 34144.4 hPa SW 33.6 km/h 46.7 km/h 67 % 0 mm
19:02 -7.2 °C -10.4 °C 34144.4 hPa SW 20.8 km/h 54.4 km/h 69 % 0 mm
19:07 -7.2 °C -10.4 °C 34144.4 hPa SW 23.3 km/h 54.4 km/h 69 % 0 mm
19:12 -7.3 °C -10.5 °C 34144.4 hPa SSW 18.2 km/h 54.4 km/h 69 % 0 mm
19:17 -7.3 °C -10.5 °C 34144.4 hPa SW 44.1 km/h 51.8 km/h 69 % 0 mm
19:22 -7.2 °C -10.4 °C 34144.4 hPa SW 25.9 km/h 49.2 km/h 69 % 0 mm
19:27 -7.3 °C -10.4 °C 34144.4 hPa WSW 20.8 km/h 46.7 km/h 70 % 0 mm
19:32 -7.5 °C -10.3 °C 34144.4 hPa West 23.3 km/h 62.1 km/h 72 % 0 mm
19:37 -7.6 °C -10.3 °C 34144.4 hPa WSW 25.9 km/h 62.1 km/h 73 % 0 mm
19:42 -7.7 °C -10.4 °C 34130.9 hPa WSW 10.3 km/h 62.1 km/h 73 % 0 mm
19:47 -7.6 °C -10.6 °C 34130.9 hPa WSW 31.1 km/h 51.8 km/h 71 % 0 mm
19:52 -7.5 °C -10.6 °C 34130.9 hPa WSW 36.2 km/h 44.1 km/h 70 % 0 mm
19:57 -7.4 °C -10.6 °C 34130.9 hPa West 38.8 km/h 59.5 km/h 70 % 0 mm
20:02 -7.5 °C -10.6 °C 34130.9 hPa SW 18.2 km/h 59.5 km/h 70 % 0 mm
20:07 -7.6 °C -10.7 °C 34120.7 hPa SW 31.1 km/h 59.5 km/h 70 % 0 mm
20:12 -7.6 °C -10.7 °C 34120.7 hPa SW 33.6 km/h 51.8 km/h 70 % 0 mm
20:17 -7.6 °C -10.7 °C 34120.7 hPa SW 36.2 km/h 49.2 km/h 70 % 0 mm
20:22 -7.6 °C -10.7 °C 34120.7 hPa WSW 28.5 km/h 38.8 km/h 70 % 0 mm
20:27 -7.6 °C -10.8 °C 34107.2 hPa SW 23.3 km/h 38.8 km/h 69 % 0 mm
20:32 -7.6 °C -10.8 °C 34107.2 hPa SW 38.8 km/h 49.2 km/h 69 % 0 mm
20:37 -7.5 °C -10.7 °C 34107.2 hPa SW 25.9 km/h 57 km/h 69 % 0 mm
20:42 -7.6 °C -10.7 °C 34107.2 hPa SW 33.6 km/h 57 km/h 70 % 0 mm
20:47 -7.6 °C -10.6 °C 34107.2 hPa SW 25.9 km/h 59.5 km/h 71 % 0 mm
20:52 -7.7 °C -10.6 °C 34107.2 hPa SSW 36.2 km/h 59.5 km/h 72 % 0 mm
20:57 -7.8 °C -10.6 °C 34107.2 hPa SW 25.9 km/h 54.4 km/h 72 % 0 mm
21:02 -7.8 °C -10.6 °C 34107.2 hPa WSW 25.9 km/h 54.4 km/h 72 % 0 mm
21:07 -7.7 °C -10.6 °C 34107.2 hPa WSW 33.6 km/h 54.4 km/h 72 % 0 mm
21:12 -7.8 °C -10.6 °C 34097 hPa SSW 20.8 km/h 54.4 km/h 72 % 0 mm
21:17 -7.8 °C -10.6 °C 34097 hPa SW 33.6 km/h 54.4 km/h 72 % 0 mm
21:22 -7.8 °C -10.6 °C 34097 hPa SW 20.8 km/h 44.1 km/h 72 % 0 mm
21:27 -7.8 °C -10.7 °C 34097 hPa SW 23.3 km/h 38.8 km/h 71 % 0 mm
21:32 -7.7 °C -10.7 °C 34097 hPa WSW 31.1 km/h 41.4 km/h 71 % 0 mm
21:37 -7.7 °C -10.7 °C 34086.9 hPa SW 23.3 km/h 41.4 km/h 71 % 0 mm
21:42 -7.8 °C -10.6 °C 34086.9 hPa SW 54.4 km/h 54.4 km/h 72 % 0 mm
21:47 -7.8 °C -10.6 °C 34086.9 hPa SW 25.9 km/h 64.7 km/h 73 % 0 mm
21:52 -7.9 °C -10.6 °C 34086.9 hPa SW 44.1 km/h 64.7 km/h 74 % 0 mm
21:57 -8.1 °C -10.6 °C 34086.9 hPa SW 46.7 km/h 64.7 km/h 75 % 0 mm
22:02 -8.2 °C -10.6 °C 34086.9 hPa SW 28.5 km/h 57 km/h 76 % 0 mm
22:07 -8.2 °C -10.5 °C 34086.9 hPa SW 18.2 km/h 57 km/h 77 % 0 mm
22:12 -8.2 °C -10.5 °C 34086.9 hPa SSW 10.3 km/h 46.7 km/h 77 % 0 mm
22:17 -8.2 °C -10.5 °C 34086.9 hPa SW 25.9 km/h 44.1 km/h 77 % 0 mm
22:27 -8.3 °C -10.4 °C 34073.3 hPa SSW 18.2 km/h 38.8 km/h 78 % 0 mm
22:32 -8.4 °C -10.4 °C 34073.3 hPa SW 25.9 km/h 41.4 km/h 79 % 0 mm
22:37 -8.5 °C -10.4 °C 34073.3 hPa WSW 10.3 km/h 46.7 km/h 80 % 0 mm
22:42 -8.7 °C -10.3 °C 34073.3 hPa SW 36.2 km/h 46.7 km/h 83 % 0 mm
22:52 -9 °C -10.3 °C 34063.2 hPa SSW 12.9 km/h 46.7 km/h 86 % 0 mm
22:57 -9.1 °C -10.2 °C 34049.6 hPa SW 25.9 km/h 44.1 km/h 88 % 0 mm
23:02 -9.1 °C -10.2 °C 34049.6 hPa SSW 20.8 km/h 44.1 km/h 88 % 0 mm
23:07 -9.2 °C -10.3 °C 34039.5 hPa SW 20.8 km/h 44.1 km/h 88 % 0 mm
23:12 -9.1 °C -10.3 °C 34039.5 hPa SW 12.9 km/h 41.4 km/h 87 % 0 mm
23:17 -9.1 °C -10.3 °C 34039.5 hPa SW 23.3 km/h 38.8 km/h 87 % 0 mm
23:22 -9.1 °C -10.3 °C 34029.3 hPa SW 15.6 km/h 33.6 km/h 87 % 0 mm
23:27 -9.1 °C -10.3 °C 34029.3 hPa SW 31.1 km/h 33.6 km/h 86 % 0 mm
23:32 -9 °C -10.3 °C 34029.3 hPa SW 18.2 km/h 33.6 km/h 86 % 0 mm
23:37 -8.9 °C -10.3 °C 34029.3 hPa SW 20.8 km/h 31.1 km/h 85 % 0 mm
23:42 -8.9 °C -10.4 °C 34029.3 hPa SSW 18.2 km/h 33.6 km/h 84 % 0 mm
23:47 -8.8 °C -10.4 °C 34029.3 hPa SW 31.1 km/h 38.8 km/h 83 % 0 mm
23:52 -8.8 °C -10.4 °C 34029.3 hPa SW 25.9 km/h 44.1 km/h 83 % 0 mm
23:57 -8.8 °C -10.4 °C 34015.8 hPa SW 18.2 km/h 44.1 km/h 83 % 0 mm
Meteo18
Compliments of Weather Underground - 4 mb

Script developed by  Jim McMurry - jmcmurry@mwt.net Adapted for the template by  Wim van der Kuil - Leuven-Template.eu

You find our weather info also at:

European Weather Network

Weather Underground

Equipment we use:

Weather-station
Davis Vue

Weather-program
Meteobridge

Weather-server
Raspberry PI 2 B+

Provider
1 and 1

Davis Vue

Meteobridge

Raspberry PI 2 B+

1 and 1